Regional Weather Roundup
Issued by NWS Upton, NY

Current Version | Previous Version | Graphics & Text | Print | Product List | Glossary Off
Versions: 1 2 3 4 5 6 7 8 9 10 11 12 13 14 15 16 17 18 19 20 21 22 23 24 25 26 27 28 29 30 31 32 33 34 35 36 37 38 39 40 41 42 43 44 45 46 47 48 49 50

000
ASUS41 KOKX 292108
RWROKX

REGIONAL WEATHER ROUNDUP
NATIONAL WEATHER SERVICE NEW YORK NY
500 PM EDT WED JUL 29 2015

NOTE: "FAIR" INDICATES FEW OR NO CLOUDS BELOW 12,000 FEET WITH NO
SIGNIFICANT WEATHER AND/OR OBSTRUCTIONS TO VISIBILITY.

NYZ071-072-176-178-NJZ106-104-292200-
NEW YORK CITY METRO AREA


CITY           SKY/WX    TMP DP  RH WIND       PRES   REMARKS
CENTRAL PARK   MOSUNNY   90  63  40 VRB6      29.95S HX  91
LAGUARDIA APRT PTSUNNY   92  63  38 S14G20    29.91S HX  93
KENNEDY INTL   PTSUNNY   88  70  55 S17       29.94F HX  93
NEWARK/LIBERTY PTSUNNY   93  63  36 S8        29.91F HX  94
BRNX BOT. GARD   N/A     90  64  43 S14       29.92F HX  91
TETERBORO      MOSUNNY   93  61  34 S10       29.90S HX  93
$$

NYZ177-179-078>081-292200-
LONG ISLAND NEW YORK

CITY           SKY/WX    TMP DP  RH WIND       PRES   REMARKS
FARMINGDALE    MOSUNNY   90  66  45 SW12      29.94S HX  92
ISLIP          PTSUNNY   89  64  43 SW15      29.92F HX  90
SHIRLEY        SUNNY     89  66  46 SW12      29.94F HX  91
WESTHAMPTON    SUNNY     89  65  44 SW13G18   29.95F HX  91
MONTAUK POINT    N/A     86  70  58 SW7       29.94F HX  90
$$

NYZ052-065-067-292200-
HUDSON VALLEY

CITY           SKY/WX    TMP DP  RH WIND       PRES   REMARKS
WHITE PLAINS   MOSUNNY   90  63  40 VRB7      29.93F HX  91
NEWBURGH       MOSUNNY   91  63  38 W12       29.94F HX  92
MONTGOMERY     MOSUNNY   92  65  40 W8        29.93F HX  94
POUGHKEEPSIE   SUNNY     95  58  28 W6        29.90F HX  94
ALBANY         PTSUNNY   92  65  40 S12       29.90F HX  94
$$

NJZ001-105-106-008-010-013-015-019>022-104-292200-
NEW JERSEY

CITY           SKY/WX    TMP DP  RH WIND       PRES   REMARKS
NEWARK/LIBERTY PTSUNNY   93  63  36 S8        29.91F HX  94
TETERBORO      MOSUNNY   93  61  34 S10       29.90S HX  93
CALDWELL       MOSUNNY   93  62  35 S3        29.92S HX  93
MORRISTOWN     PTSUNNY   95  61  31 S8        29.93S HX  95
SOMERVILLE     MOSUNNY   93  64  38 VRB5      29.91S HX  94
SUSSEX         MOSUNNY   91  63  39 VRB5      29.95F HX  92
ANDOVER          N/A     89  63  41 SW6       29.96S HX  90
TRENTON        MOSUNNY   91  65  41 SW7       29.93F HX  93
MILLVILLE      MOSUNNY   86  71  60 VRB6      29.97F HX  91
ATLANTIC CITY  MOSUNNY   87  72  60 S15       29.96F HX  93
WRIGHTSTOWN    MOSUNNY   92  67  42 SW12      29.91F HX  96
TOMS RIVER       N/A     90  73  58 S9        29.94F HX  98
BELMAR         MOSUNNY   88  70  55 S12G17    29.95S HX  92
$$

PAZ047>061-062-071-292200-
EASTERN PENNSYLVANIA

CITY           SKY/WX    TMP DP  RH WIND       PRES   REMARKS
PHILADELPHIA   PTSUNNY   91  72  53 SW12G21   29.94F HX  98
ALLENTOWN      MOSUNNY   90  67  46 SW8       29.94F HX  93
SCRANTON       MOSUNNY   90  63  40 VRB5      29.95F HX  91
$$

CTZ002-004>006-009-010-012-RIZ004-006-007-MAZ004-011-015-292200-
SOUTHERN NEW ENGLAND
 IN CT

CITY           SKY/WX    TMP DP  RH WIND       PRES   REMARKS
BRADLEY INTL   PTSUNNY   93  64  38 SW7       29.89F HX  94
HARTFORD       MOSUNNY   94  65  38 W9        29.89F HX  96
DANBURY        SUNNY     91  58  32 SW8       29.94F HX  90
WTRBRY/OXFORD  MOSUNNY   90  63  40 VRB6      29.98F HX  90
BRIDGEPORT     SUNNY     90  64  42 S9        29.91F HX  91
MERIDEN        SUNNY     94  62  34 W7        29.91F HX  94
NEW HAVEN      SUNNY     87  69  54 S9        29.92F HX  91
CHESTER        FAIR      90  64  43 S8        29.94F HX  91
GROTON         SUNNY     84  71  65 SW9       29.91F
WILLIMANTIC    MOSUNNY   93  66  40 SW8       29.91F HX  96

 IN RI

CITY           SKY/WX    TMP DP  RH WIND       PRES   REMARKS
PROVIDENCE     MOSUNNY   90  69  50 SW14      29.90F HX  94
BLOCK ISLAND     N/A     81  73  78 SW17      29.95F
WESTERLY       SUNNY     85  68  56 SW10      29.93F

 IN MA

CITY           SKY/WX    TMP DP  RH WIND       PRES   REMARKS
BOSTON         PTSUNNY   88  66  48 E7        29.87F HX  90
WORCESTER      MOSUNNY   87  64  46 W8        29.95F
WESTFIELD      MOSUNNY   93  58  30 SW6       29.90F HX  92
PROVINCETOWN   PTSUNNY   84  64  51 S12       29.90F
NANTUCKET      PTSUNNY   79  71  76 SW10      29.93F
$$

ANZ330-335-338-340-345-350-353-355-292200-
COASTAL MARINE OBSERVATIONS


STATION/POSITION TIME  SKY/WX   TEMP    WIND        PRES    VSBY  WAVE
                                AIR SEA DIR/SP/G                  HT/PER
                 (UTC)          (F)     (DEG/KT/KT) (MB)    (MI)  (FT/S)
NY HARB ENTRANCE 2050            80 78  200/ 16/ 17 1013.2          2/ 7
4S FIRE IS       NOT AVBL
20S FIRE ISLAND  2050            78 75  210/ 10/ 12 1013.8          2/ 7
GREAT SOUTH BAY  2000            81 82  280/ 12/ 16   N/A
23SW MTP         2050            77 75  240/ 10/ 12 1013.5          2/ 9
HUDSON CANYON    NOT AVBL
KINGS POINT      2000            86                   N/A
EXECUTION ROCKS  2000            85     190/  6/  6   N/A
CENTRAL LI SOUND NOT AVBL
EASTERN LI SOUND 2000            79 73  230/  4/  8   N/A
ROBBINS REEF     2000            81                   N/A
$$


>>>>>>>>>>>>>>>>>>>>>>>>>>>> KEY <<<<<<<<<<<<<<<<<<<<<<<<<<<
>                                                          <
>     SKY/WX - SKY CONDITION/PRESENT WEATHER               <
>     TMP    - TEMPERATURE IN FAHRENHEIT                   <
>     DP     - DEWPOINT IN FAHRENHEIT                      <
>     RH     - RELATIVE HUMIDITY IN PERCENT                <
>     WIND   - DIRECTION AND SPEED IN MPH                  <
>     PRES   - MEAN SEA LEVEL PRESSURE IN INCHES OF HG     <
>     WCI    - WIND CHILL INDEX                            <
>     VSB    - VISIBILITY IN MILES                         <
>     HX     - HEAT INDEX                                  <
>     TC     - TEMPERATURE IN CELSIUS                      <
>     VRB    - VARIABLE WIND DIRECTION                     <
>                                                          <
>>>>>>>>>>>>>>>>>>>>>>>>>>>> KEY <<<<<<<<<<<<<<<<<<<<<<<<<<<




USA.gov is the U.S. government's official web portal to all federal, state and local government web resources and services.